, AK

(GMT )
Gustavus

Weather History for PAGS - February, 2013

Change the Weather History Date:

Tuesday, February 26, 2013

  Actual Average Record
Temperature  
Mean Temperature 40 °F -  
Max Temperature 42 °F 41 °F 57 °F (1992)
Min Temperature 37 °F 33 °F 2 °F (1956)
Degree Days  
Heating Degree Days 26    
Moisture  
Dew Point 27 °F    
Average Humidity 62    
Maximum Humidity 75    
Minimum Humidity 46    
Precipitation  
Precipitation 0.00 in - - ()
Sea Level Pressure  
Sea Level Pressure 29.62 in    
Wind  
Wind Speed 6 mph (ENE)    
Max Wind Speed 22 mph    
Max Gust Speed 32 mph    
Visibility 10 miles    
Events      
Averages and records for this station are not official NWS values.
T = Trace of Precipitation, MM = Missing Value Source: NWS Daily Summary

Daily Weather History Graph

Daily Weather History Graph

Search for Another Location

Airport or City:

Trip Planner

Search our weather history database for the weather conditions in past years. The results will help you decide how hot, cold, wet, or windy it might be!

Date:

Astronomy

Feb. 26, 2013 Rise Set
Actual Time 7:05 AM AKST 5:27 PM AKST
Civil Twilight 6:25 AM AKST 6:07 PM AKST
Nautical Twilight 5:39 AM AKST 6:53 PM AKST
Astronomical Twilight 4:52 AM AKST 7:39 PM AKST
Moon 7:23 PM AKST (2/26) 6:48 AM AKST (2/26)
Length of Visible Light 11h 42m
Length of Day
10h 21m
Full, 99% of the Moon is Illuminated
Feb 26
Full
Mar 4
Last Quarter
Mar 11
New
Mar 19
First Quarter
Mar 27
Full

Hourly Weather History & Observations

Time (AKST) Temp. Windchill Dew Point Humidity Pressure Visibility Wind Dir Wind Speed Gust Speed Precip Events Conditions
12:16 AM 39.2 °F 35.9 °F 24.8 °F 56% 29.79 in 10.0 mi East 4.6 mph - N/A   Overcast
12:36 AM 39.2 °F 37.0 °F 23.0 °F 52% 29.78 in 10.0 mi East 3.5 mph - N/A   Overcast
12:56 AM 41.0 °F 36.4 °F 23.0 °F 49% 29.77 in 10.0 mi ENE 6.9 mph - N/A   Overcast
1:16 AM 39.2 °F - 23.0 °F 52% 29.77 in 10.0 mi Calm Calm - N/A   Overcast
1:36 AM 39.2 °F - 23.0 °F 52% 29.75 in 10.0 mi Calm Calm - N/A   Mostly Cloudy
1:56 AM 39.2 °F 35.0 °F 23.0 °F 52% 29.74 in 10.0 mi East 5.8 mph - N/A   Mostly Cloudy
2:16 AM 39.2 °F 37.0 °F 23.0 °F 52% 29.73 in 10.0 mi East 3.5 mph - N/A   Mostly Cloudy
2:36 AM 39.2 °F 33.6 °F 23.0 °F 52% 29.73 in 10.0 mi SE 8.1 mph - N/A   Mostly Cloudy
3:16 AM 39.2 °F 33.6 °F 23.0 °F 52% 29.71 in 10.0 mi East 8.1 mph - N/A   Overcast
3:36 AM 41.0 °F 37.1 °F 23.0 °F 49% 29.70 in 10.0 mi East 5.8 mph - N/A   Overcast
3:56 AM 41.0 °F 36.4 °F 23.0 °F 49% 29.69 in 10.0 mi ENE 6.9 mph - N/A   Overcast
4:16 AM 41.0 °F 35.8 °F 23.0 °F 49% 29.68 in 10.0 mi East 8.1 mph - N/A   Overcast
4:36 AM 41.0 °F 36.4 °F 23.0 °F 49% 29.67 in 10.0 mi NE 6.9 mph - N/A   Overcast
4:56 AM 41.0 °F 38.0 °F 24.8 °F 53% 29.67 in 10.0 mi East 4.6 mph - N/A   Overcast
5:16 AM 41.0 °F 37.1 °F 23.0 °F 49% 29.66 in 10.0 mi East 5.8 mph - N/A   Overcast
5:36 AM 41.0 °F 37.1 °F 23.0 °F 49% 29.66 in 10.0 mi ESE 5.8 mph - N/A   Overcast
5:56 AM 41.0 °F 38.0 °F 23.0 °F 49% 29.65 in 10.0 mi ENE 4.6 mph - N/A   Overcast
6:16 AM 41.0 °F 36.4 °F 23.0 °F 49% 29.64 in 10.0 mi NE 6.9 mph - N/A   Overcast
6:36 AM 42.8 °F 38.0 °F 23.0 °F 46% 29.64 in 10.0 mi ESE 8.1 mph - N/A   Overcast
6:56 AM 41.0 °F 36.4 °F 23.0 °F 49% 29.63 in 10.0 mi East 6.9 mph - N/A   Overcast
7:16 AM 41.0 °F 37.1 °F 24.8 °F 53% 29.63 in 10.0 mi East 5.8 mph - N/A   Overcast
7:36 AM 41.0 °F - 24.8 °F 53% 29.62 in 10.0 mi Calm Calm - N/A   Overcast
7:56 AM 41.0 °F 39.0 °F 24.8 °F 53% 29.62 in 10.0 mi ENE 3.5 mph - N/A   Overcast
8:16 AM 41.0 °F 38.0 °F 24.8 °F 53% 29.62 in 10.0 mi ENE 4.6 mph - N/A   Overcast
8:36 AM 41.0 °F 39.0 °F 24.8 °F 53% 29.61 in 10.0 mi NE 3.5 mph - N/A   Overcast
8:56 AM 37.4 °F 34.9 °F 26.6 °F 65% 29.61 in 10.0 mi West 3.5 mph - N/A   Overcast
9:16 AM 37.4 °F 32.1 °F 26.6 °F 65% 29.60 in 10.0 mi NNW 6.9 mph - N/A   Overcast
9:36 AM 37.4 °F - 28.4 °F 70% 29.60 in 10.0 mi Calm Calm - N/A   Overcast
9:56 AM 37.4 °F 32.8 °F 28.4 °F 70% 29.60 in 10.0 mi WSW 5.8 mph - N/A   Overcast
10:16 AM 37.4 °F 32.1 °F 28.4 °F 70% 29.60 in 10.0 mi WNW 6.9 mph - N/A   Overcast
10:36 AM 37.4 °F 33.8 °F 28.4 °F 70% 29.60 in 10.0 mi West 4.6 mph - N/A   Overcast
10:56 AM 37.4 °F 32.1 °F 30.2 °F 75% 29.60 in 10.0 mi NW 6.9 mph - N/A   Overcast
11:16 AM 37.4 °F 33.8 °F 30.2 °F 75% 29.60 in 10.0 mi NW 4.6 mph - N/A   Overcast
11:36 AM 37.4 °F 32.1 °F 30.2 °F 75% 29.60 in 10.0 mi WNW 6.9 mph - N/A   Overcast
11:56 AM 37.4 °F 31.4 °F 30.2 °F 75% 29.60 in 10.0 mi WNW 8.1 mph - N/A   Overcast
12:16 PM 37.4 °F 31.4 °F 30.2 °F 75% 29.60 in 10.0 mi NNW 8.1 mph - N/A   Overcast
12:36 PM 37.4 °F 32.1 °F 30.2 °F 75% 29.60 in 10.0 mi NW 6.9 mph - N/A   Overcast
12:56 PM 37.4 °F 31.4 °F 30.2 °F 75% 29.60 in 10.0 mi NW 8.1 mph - N/A   Overcast
1:16 PM 39.2 °F 35.9 °F 30.2 °F 70% 29.60 in 10.0 mi WNW 4.6 mph - N/A   Overcast
1:36 PM 39.2 °F 35.0 °F 30.2 °F 70% 29.60 in 10.0 mi NNW 5.8 mph - N/A   Overcast
1:56 PM 39.2 °F - 30.2 °F 70% 29.60 in 10.0 mi Calm Calm - N/A   Overcast
2:16 PM 39.2 °F 35.0 °F 30.2 °F 70% 29.60 in 10.0 mi NW 5.8 mph - N/A   Overcast
2:36 PM 39.2 °F 35.9 °F 32.0 °F 75% 29.60 in 10.0 mi WNW 4.6 mph - N/A   Overcast
2:56 PM 39.2 °F 35.0 °F 30.2 °F 70% 29.60 in 10.0 mi NW 5.8 mph - N/A   Overcast
3:16 PM 39.2 °F 35.0 °F 32.0 °F 75% 29.59 in 10.0 mi NW 5.8 mph - N/A   Overcast
3:36 PM 39.2 °F 34.2 °F 30.2 °F 70% 29.59 in 10.0 mi WNW 6.9 mph - N/A   Overcast
3:56 PM 39.2 °F 35.9 °F 30.2 °F 70% 29.59 in 10.0 mi West 4.6 mph - N/A   Overcast
4:16 PM 39.2 °F - 30.2 °F 70% 29.59 in 10.0 mi Calm Calm - N/A   Overcast
4:36 PM 39.2 °F 37.0 °F 30.2 °F 70% 29.60 in 10.0 mi NNW 3.5 mph - N/A   Overcast
4:56 PM 37.4 °F 33.8 °F 30.2 °F 75% 29.59 in 10.0 mi NW 4.6 mph - N/A   Overcast
5:16 PM 37.4 °F 33.8 °F 30.2 °F 75% 29.59 in 10.0 mi WNW 4.6 mph - N/A   Overcast
5:36 PM 39.2 °F 37.0 °F 30.2 °F 70% 29.59 in 10.0 mi NW 3.5 mph - N/A   Overcast
5:56 PM 37.4 °F 32.8 °F 30.2 °F 75% 29.59 in 10.0 mi NNW 5.8 mph - N/A   Overcast
6:16 PM - - - N/A% 29.59 in 10.0 mi Calm Calm - N/A   Overcast
6:36 PM - - - N/A% 29.58 in 10.0 mi East 6.9 mph - N/A   Overcast
6:56 PM - - - N/A% 29.58 in 10.0 mi ESE 9.2 mph - N/A   Overcast
7:16 PM - - - N/A% 29.58 in 10.0 mi ESE 11.5 mph 17.3 mph N/A   Overcast
7:36 PM - - - N/A% 29.57 in 10.0 mi ESE 13.8 mph 21.9 mph N/A   Mostly Cloudy
7:56 PM - - - N/A% 29.57 in 10.0 mi SE 11.5 mph - N/A   Mostly Cloudy
8:16 PM - - - N/A% 29.57 in 10.0 mi ESE 11.5 mph - N/A   Mostly Cloudy
8:36 PM - - - N/A% 29.57 in 10.0 mi ESE 12.7 mph 19.6 mph N/A   Partly Cloudy
8:56 PM - - - N/A% 29.56 in 10.0 mi East 9.2 mph 16.1 mph N/A   Scattered Clouds
9:16 PM - - - N/A% 29.55 in 10.0 mi ESE 12.7 mph 17.3 mph N/A   Mostly Cloudy
9:36 PM - - - N/A% 29.55 in 10.0 mi ESE 12.7 mph 25.3 mph N/A   Overcast
9:56 PM - - - N/A% 29.55 in 10.0 mi East 10.4 mph 18.4 mph N/A   Mostly Cloudy
10:16 PM - - - N/A% 29.55 in 10.0 mi ESE 16.1 mph 24.2 mph N/A   Mostly Cloudy
10:36 PM - - - N/A% 29.56 in 10.0 mi ESE 18.4 mph 25.3 mph N/A   Mostly Cloudy
10:56 PM - - - N/A% 29.56 in 10.0 mi ESE 18.4 mph 26.5 mph N/A   Mostly Cloudy
11:16 PM - - - N/A% 29.57 in 10.0 mi ESE 21.9 mph 31.1 mph N/A   Overcast
11:36 PM - - - N/A% 29.56 in 10.0 mi SE 19.6 mph 32.2 mph N/A   Overcast
11:56 PM 42.8 °F 34.3 °F 26.6 °F 53% 29.57 in 10.0 mi ESE 19.6 mph 31.1 mph N/A   Overcast